OK1VCF-8 Weather Reports


time (UTC)temp
C
wind
direction
speed
KPH
gust
KPH
rain 1hr
cm
rain 24hr
cm
rain mn
cm
humidity
%
barometer
mb
20260502215503 13 0 0.0 0.0 0.00 0.00 0.00 52 1019.2
20260502214745 13 0 0.0 0.0 0.00 0.00 0.00 51 1019.2
20260502214027 13 0 0.0 0.0 0.00 0.00 0.00 50 1019.1
20260502213310 13 0 0.0 0.0 0.00 0.00 0.00 48 1019.2
20260502212552 13 0 0.0 0.0 0.00 0.00 0.00 48 1019.2
20260502211834 13 0 0.0 0.0 0.00 0.00 0.00 47 1019.1
20260502211116 14 0 0.0 0.0 0.00 0.00 0.00 48 1019.2
20260502210357 14 0 0.0 0.0 0.00 0.00 0.00 47 1019.2
20260502205640 14 0 0.0 0.0 0.00 0.00 0.00 46 1019.2
20260502204638 14 0 0.0 0.0 0.00 0.00 0.00 46 1019.2
20260502203919 14 0 0.0 0.0 0.00 0.00 0.00 47 1019.2
20260502203202 15 0 0.0 0.0 0.00 0.00 0.00 46 1019.2
20260502202444 15 0 0.0 0.0 0.00 0.00 0.00 46 1019.4
20260502201726 15 0 0.0 0.0 0.00 0.00 0.00 44 1019.4
20260502201008 15 0 0.0 0.0 0.00 0.00 0.00 44 1019.4
20260502200249 15 0 0.0 0.0 0.00 0.00 0.00 44 1019.4
20260502195530 15 0 0.0 0.0 0.00 0.00 0.00 42 1019.4
20260502194812 16 0 0.0 0.0 0.00 0.00 0.00 43 1019.5
20260502194054 15 0 0.0 0.0 0.00 0.00 0.00 44 1019.4
20260502193335 16 0 0.0 0.0 0.00 0.00 0.00 43 1019.4
20260502192616 16 0 0.0 0.0 0.00 0.00 0.00 42 1019.4
20260502191857 16 0 0.0 0.0 0.00 0.00 0.00 42 1019.4
20260502191139 16 0 0.0 0.0 0.00 0.00 0.00 42 1019.4
20260502190423 16 0 0.0 0.0 0.00 0.00 0.00 40 1019.4
20260502185419 17 0 0.0 0.0 0.00 0.00 0.00 39 1019.3
20260502184701 17 0 0.0 0.0 0.00 0.00 0.00 38 1019.2
20260502183942 18 0 0.0 0.0 0.00 0.00 0.00 38 1019.2
20260502183224 18 0 0.0 0.0 0.00 0.00 0.00 36 1019.3
20260502182507 19 0 0.0 0.0 0.00 0.00 0.00 34 1019.2
20260502181748 20 0 0.0 0.0 0.00 0.00 0.00 34 1019.2
20260502181031 20 0 0.0 0.0 0.00 0.00 0.00 34 1019.2
20260502180312 20 0 0.0 0.0 0.00 0.00 0.00 34 1019.2
20260502170151 22 0 0.0 0.0 0.00 0.00 0.00 27 1019.6
20260502163955 31 0 0.0 0.0 0.00 0.00 0.00 16 1019.6
20260502163237 32 0 0.0 0.0 0.00 0.00 0.00 16 1019.6
20260502162516 32 0 0.0 0.0 0.00 0.00 0.00 16 1019.8
20260502161757 32 0 0.0 0.0 0.00 0.00 0.00 16 1019.8
20260502161037 32 0 0.0 0.0 0.00 0.00 0.00 17 1019.9
20260502160319 32 0 0.0 0.0 0.00 0.00 0.00 17 1020.2
20260502151952 31 0 0.0 0.0 0.00 0.00 0.00 16 1020.6
20260502150948 32 0 0.0 0.0 0.00 0.00 0.00 16 1020.6
20260502150228 30 0 0.0 0.0 0.00 0.00 0.00 18 1020.8
20260502130147 23 0 0.0 0.0 0.00 0.00 0.00 24 1023.1
20260502123750 24 0 0.0 0.0 0.00 0.00 0.00 25 1022.8
20260502122942 24 0 0.0 0.0 0.00 0.00 0.00 24 1022.8
20260502122141 24 0 0.0 0.0 0.00 0.00 0.00 24 1023.0
20260502121342 24 0 0.0 0.0 0.00 0.00 0.00 24 1023.0
20260502120547 23 0 0.0 0.0 0.00 0.00 0.00 25 1023.2
20260502115749 23 0 0.0 0.0 0.00 0.00 0.00 26 1023.2
20260502114949 23 0 0.0 0.0 0.00 0.00 0.00 25 1023.4
20260502114157 22 0 0.0 0.0 0.00 0.00 0.00 24 1023.5
20260502113417 23 0 0.0 0.0 0.00 0.00 0.00 26 1023.6
20260502112644 23 0 0.0 0.0 0.00 0.00 0.00 26 1023.8
20260502111631 22 0 0.0 0.0 0.00 0.00 0.00 27 1023.8
20260502110911 22 0 0.0 0.0 0.00 0.00 0.00 27 1024.0
20260502110152 22 0 0.0 0.0 0.00 0.00 0.00 29 1024.0
20260502105432 21 0 0.0 0.0 0.00 0.00 0.00 30 1024.0
20260502104713 22 0 0.0 0.0 0.00 0.00 0.00 28 1024.2
20260502103953 22 0 0.0 0.0 0.00 0.00 0.00 30 1024.4
20260502103235 22 0 0.0 0.0 0.00 0.00 0.00 30 1024.5
20260502102514 22 0 0.0 0.0 0.00 0.00 0.00 32 1024.4
20260502101756 21 0 0.0 0.0 0.00 0.00 0.00 32 1024.6
20260502101036 21 0 0.0 0.0 0.00 0.00 0.00 30 1024.7
20260502100316 22 0 0.0 0.0 0.00 0.00 0.00 31 1024.7
20260502090915 20 0 0.0 0.0 0.00 0.00 0.00 40 1025.4
20260502090156 20 0 0.0 0.0 0.00 0.00 0.00 42 1025.4
20260502070859 13 0 0.0 0.0 0.00 0.00 0.00 56 1026.4
20260502070117 13 0 0.0 0.0 0.00 0.00 0.00 57 1026.4
20260502065337 13 0 0.0 0.0 0.00 0.00 0.00 58 1026.4
20260502064557 12 0 0.0 0.0 0.00 0.00 0.00 60 1026.5
20260502063815 12 0 0.0 0.0 0.00 0.00 0.00 62 1026.5
20260502063035 12 0 0.0 0.0 0.00 0.00 0.00 62 1026.6
20260502062257 11 0 0.0 0.0 0.00 0.00 0.00 64 1026.6
20260502061517 11 0 0.0 0.0 0.00 0.00 0.00 65 1026.5
20260502060740 10 0 0.0 0.0 0.00 0.00 0.00 66 1026.6
20260502060000 10 0 0.0 0.0 0.00 0.00 0.00 68 1026.6
20260502055231 10 0 0.0 0.0 0.00 0.00 0.00 68 1026.5
20260502054509 9 0 0.0 0.0 0.00 0.00 0.00 70 1026.5
20260502053508 9 0 0.0 0.0 0.00 0.00 0.00 70 1026.5
20260502051326 8 0 0.0 0.0 0.00 0.00 0.00 74 1026.4
20260502050609 7 0 0.0 0.0 0.00 0.00 0.00 74 1026.5
20260502045849 7 0 0.0 0.0 0.00 0.00 0.00 76 1026.5
20260502045130 7 0 0.0 0.0 0.00 0.00 0.00 76 1026.4
20260502044412 7 0 0.0 0.0 0.00 0.00 0.00 76 1026.4
20260502043653 7 0 0.0 0.0 0.00 0.00 0.00 76 1026.4
20260502042935 7 0 0.0 0.0 0.00 0.00 0.00 76 1026.4
20260502042218 8 0 0.0 0.0 0.00 0.00 0.00 72 1026.3
20260502041458 10 0 0.0 0.0 0.00 0.00 0.00 66 1026.4
20260502040741 10 0 0.0 0.0 0.00 0.00 0.00 70 1026.4
20260502040023 7 0 0.0 0.0 0.00 0.00 0.00 74 1026.5
20260502035307 6 0 0.0 0.0 0.00 0.00 0.00 79 1026.3
20260502034305 5 0 0.0 0.0 0.00 0.00 0.00 83 1026.4
20260502033547 5 0 0.0 0.0 0.00 0.00 0.00 82 1026.4
20260502032829 5 0 0.0 0.0 0.00 0.00 0.00 82 1026.4
20260502032111 6 0 0.0 0.0 0.00 0.00 0.00 80 1026.4
20260502031353 6 0 0.0 0.0 0.00 0.00 0.00 80 1026.4
20260502030637 6 0 0.0 0.0 0.00 0.00 0.00 80 1026.4
20260502025918 6 0 0.0 0.0 0.00 0.00 0.00 82 1026.3
20260502025159 6 0 0.0 0.0 0.00 0.00 0.00 81 1026.3
20260502024442 6 0 0.0 0.0 0.00 0.00 0.00 80 1026.4
20260502023724 6 0 0.0 0.0 0.00 0.00 0.00 80 1026.4
20260502023007 6 0 0.0 0.0 0.00 0.00 0.00 79 1026.4
20260502022251 6 0 0.0 0.0 0.00 0.00 0.00 79 1026.5
20260502021532 6 0 0.0 0.0 0.00 0.00 0.00 80 1026.5
20260502020814 6 0 0.0 0.0 0.00 0.00 0.00 78 1026.6
20260502020059 6 0 0.0 0.0 0.00 0.00 0.00 78 1026.6
20260502015056 6 0 0.0 0.0 0.00 0.00 0.00 78 1026.6
20260502014337 7 0 0.0 0.0 0.00 0.00 0.00 78 1026.4
20260502013621 7 0 0.0 0.0 0.00 0.00 0.00 78 1026.6
20260502012903 7 0 0.0 0.0 0.00 0.00 0.00 76 1026.6
20260502012145 7 0 0.0 0.0 0.00 0.00 0.00 77 1026.8
20260502011415 7 0 0.0 0.0 0.00 0.00 0.00 78 1026.8
20260502010642 7 0 0.0 0.0 0.00 0.00 0.00 77 1026.8
20260502005905 7 0 0.0 0.0 0.00 0.00 0.00 76 1026.8
20260502005114 7 0 0.0 0.0 0.00 0.00 0.00 76 1026.8
20260502004321 8 0 0.0 0.0 0.00 0.00 0.00 75 1026.8
20260502003528 7 0 0.0 0.0 0.00 0.00 0.00 75 1026.8
20260502002732 8 0 0.0 0.0 0.00 0.00 0.00 74 1026.9
20260502001936 8 0 0.0 0.0 0.00 0.00 0.00 74 1027.0
20260502001142 8 0 0.0 0.0 0.00 0.00 0.00 73 1026.9
20260502000347 8 0 0.0 0.0 0.00 0.00 0.00 72 1027.0
20260501235254 8 0 0.0 0.0 0.00 0.00 0.00 72 1026.8
20260501234458 8 0 0.0 0.0 0.00 0.00 0.00 71 1027.0
20260501233711 8 0 0.0 0.0 0.00 0.00 0.00 71 1027.0
20260501232939 9 0 0.0 0.0 0.00 0.00 0.00 70 1027.2
20260501232210 9 0 0.0 0.0 0.00 0.00 0.00 70 1027.2
20260501231451 9 0 0.0 0.0 0.00 0.00 0.00 70 1027.2
20260501230733 10 0 0.0 0.0 0.00 0.00 0.00 68 1027.1
20260501230015 10 0 0.0 0.0 0.00 0.00 0.00 68 1027.1
20260501225257 10 0 0.0 0.0 0.00 0.00 0.00 68 1027.2
20260501224539 10 0 0.0 0.0 0.00 0.00 0.00 67 1027.8
20260501223822 10 0 0.0 0.0 0.00 0.00 0.00 68 1027.2
20260501223104 10 0 0.0 0.0 0.00 0.00 0.00 66 1027.1
20260501222345 10 0 0.0 0.0 0.00 0.00 0.00 66 1027.0
20260501221627 11 0 0.0 0.0 0.00 0.00 0.00 64 1027.2
20260501220909 11 0 0.0 0.0 0.00 0.00 0.00 64 1027.2
20260501215907 11 0 0.0 0.0 0.00 0.00 0.00 64 1027.2